Simultaneous Nadir Overpasses (SNOs) Predictions

Prediction of SNOs between NOAA-21 and METOP-C Satellite Orbit:

Table of predicted SNOs for the next 14.0 days since TLE Epoch: 9/14/2024
Index Date (NOAA-21) Time (NOAA-21) Lat,Lon (NOAA-21) SZA (NOAA-21 ) Date (METOP-C) Time (METOP-C) Lat,Lon (METOP-C) SZA (METOP-C ) Distance(km) Time Diff (sec)
1 09/14/2024 04:01:22 -73.42, -69.91 109.72 09/14/2024 04:02:29 -73.39, -67.15 109.87 87.65 67
2 09/14/2024 04:52:05 73.26, 97.76 70.12 09/14/2024 04:53:13 73.21, 99.78 69.98 65.03 68
3 09/14/2024 05:42:46 -73.12, -94.60 110.03 09/14/2024 05:43:57 -73.07, -93.19 110.14 45.97 71
4 09/14/2024 06:33:29 72.95, 73.06 69.82 09/14/2024 06:34:41 72.89, 73.75 69.71 23.87 72
5 09/14/2024 07:24:11 -72.86,-119.43 110.28 09/14/2024 07:25:24 -72.80,-119.10 110.36 12.64 73
6 09/14/2024 08:14:55 72.75, 48.12 69.62 09/14/2024 08:16:05 72.77, 48.16 69.63 2.74 70
7 09/14/2024 09:05:39 -72.75,-144.58 110.36 09/14/2024 09:06:47 -72.73,-144.58 110.40 2.63 68
8 09/14/2024 09:56:25 72.74, 22.75 69.64 09/14/2024 09:57:27 72.75, 22.78 69.64 1.35 62
9 09/14/2024 10:47:09 -72.75,-169.95 110.34 09/14/2024 10:48:08 -72.76,-169.86 110.34 3.42 59
10 09/14/2024 11:37:55 72.74, -2.62 69.67 09/14/2024 11:38:49 72.73, -2.59 69.65 1.08 54
11 09/14/2024 12:28:39 -72.75, 164.68 110.32 09/14/2024 12:29:30 -72.75, 164.77 110.33 2.74 51
12 09/14/2024 13:19:25 72.73, -27.98 69.69 09/14/2024 13:20:11 72.71, -27.97 69.66 2.35 46
13 09/14/2024 14:10:09 -72.74, 139.32 110.29 09/14/2024 14:10:52 -72.73, 139.39 110.32 2.88 43
14 09/14/2024 15:00:54 72.68, -53.24 69.66 09/14/2024 15:01:33 72.70, -53.35 69.67 3.84 39
15 09/14/2024 15:51:38 -72.69, 114.05 110.33 09/14/2024 15:52:14 -72.71, 114.01 110.31 2.86 36
16 09/14/2024 16:42:25 72.73, -78.72 69.73 09/14/2024 16:42:54 72.73, -78.62 69.73 3.19 29
17 09/14/2024 17:33:08 -72.68, 88.69 110.30 09/14/2024 17:33:36 -72.69, 88.64 110.30 1.98 28
18 09/14/2024 18:23:55 72.72,-104.08 69.76 09/14/2024 18:24:16 72.71,-104.00 69.74 3.13 21
19 09/14/2024 19:14:38 -72.68, 63.32 110.28 09/14/2024 19:14:58 -72.67, 63.26 110.29 2.15 20
20 09/14/2024 20:05:24 72.67,-129.34 69.72 09/14/2024 20:05:38 72.69,-129.37 69.75 2.91 14
21 09/14/2024 20:56:08 -72.68, 37.95 110.26 09/14/2024 20:56:20 -72.66, 37.88 110.28 3.22 12
22 09/14/2024 21:46:54 72.66,-154.71 69.75 09/14/2024 21:47:00 72.67,-154.75 69.76 1.76 6
23 09/14/2024 22:37:38 -72.67, 12.59 110.24 09/14/2024 22:37:41 -72.69, 12.61 110.22 2.06 3
24 09/14/2024 23:28:24 72.66, 179.92 69.77 09/14/2024 23:28:22 72.66, 179.87 69.77 1.72 2
25 09/15/2024 00:19:08 -72.67, -12.78 110.21 09/15/2024 00:19:03 -72.67, -12.77 110.21 0.53 5
26 09/15/2024 01:09:54 72.66, 154.56 69.79 09/15/2024 01:09:44 72.64, 154.49 69.78 2.83 10
27 09/15/2024 02:00:38 -72.66, -38.15 110.19 09/15/2024 02:00:25 -72.65, -38.14 110.20 1.20 13
28 09/15/2024 02:51:24 72.65, 129.19 69.81 09/15/2024 02:51:05 72.67, 129.22 69.83 2.35 19
29 09/15/2024 03:42:08 -72.66, -63.51 110.17 09/15/2024 03:41:47 -72.64, -63.52 110.19 2.79 21
30 09/15/2024 04:32:54 72.65, 103.82 69.84 09/15/2024 04:32:27 72.65, 103.84 69.84 0.91 27
31 09/15/2024 05:23:38 -72.66, -88.88 110.15 09/15/2024 05:23:08 -72.67, -88.79 110.13 3.12 30
32 09/15/2024 06:14:24 72.64, 78.45 69.86 09/15/2024 06:13:49 72.63, 78.47 69.85 1.20 35
33 09/15/2024 07:05:08 -72.65,-114.25 110.12 09/15/2024 07:04:30 -72.65,-114.17 110.12 2.53 38
34 09/15/2024 07:55:54 72.64, 53.09 69.88 09/15/2024 07:55:11 72.62, 53.09 69.86 2.73 43
35 09/15/2024 08:46:38 -72.65,-139.61 110.10 09/15/2024 08:45:52 -72.63,-139.55 110.11 2.89 46
36 09/15/2024 09:37:24 72.64, 27.72 69.91 09/15/2024 09:36:32 72.65, 27.82 69.92 3.47 52
37 09/15/2024 10:28:07 -72.59,-164.88 110.13 09/15/2024 10:27:14 -72.61,-164.93 110.10 2.67 53
38 09/15/2024 11:18:53 72.63, 2.35 69.93 09/15/2024 11:17:53 72.63, 2.44 69.93 2.88 60
39 09/15/2024 12:09:36 -72.59, 169.76 110.11 09/15/2024 12:08:35 -72.60, 169.70 110.09 1.99 61
40 09/15/2024 13:00:23 72.63, -23.01 69.95 09/15/2024 12:59:15 72.61, -22.94 69.94 3.17 68
41 09/15/2024 13:51:06 -72.59, 144.39 110.09 09/15/2024 13:49:57 -72.58, 144.32 110.08 2.47 69
42 09/15/2024 14:41:52 72.57, -48.28 69.92 09/15/2024 14:40:37 72.59, -48.32 69.95 2.46 75
43 09/15/2024 15:32:34 -72.48, 119.23 110.17 09/15/2024 15:31:20 -72.51, 118.84 110.12 13.20 74
44 09/15/2024 16:23:16 72.26, -73.03 69.62 09/15/2024 16:22:05 72.27, -74.30 69.68 43.02 71
45 09/15/2024 17:13:58 -72.17, 94.46 110.47 09/15/2024 17:12:48 -72.18, 92.86 110.39 54.47 70
46 09/15/2024 18:04:40 71.95, -97.81 69.31 09/15/2024 18:03:33 71.94,-100.27 69.41 84.80 67
47 09/15/2024 18:55:22 -71.86, 69.68 110.77 09/15/2024 18:54:16 -71.86, 66.91 110.66 96.06 66



Historial Predications of SNOs between NOAA-21 and METOP-C
